Temperature
-2 -2 -2 -2 -2 -2 -2 -2 -2 -1 -1 -1 -1 -1 -1 -1 -1 -1 -1 -1 -1 -1 -1 -1 -1 -0 -0 -0 -0 -0 -0 -0 -0 0 1 1 1 1 1 1 1 1 1
-3 -3 -3 -3 -3 -3 -3 -2 -2 -2 -2 -2 -2 -2 -2 -2 -1 -1 -1 -1 -1 -1 -1 -1 -1 -1 -1 -1 -1 -1 -1 -1 -1 -1 0 0 1 1 1 1 1 1 1
-4 -4 -4 -4 -4 -3 -3 -3 -3 -3 -3 -3 -3 -3 -2 -2 -2 -2 -2 -2 -2 -2 -2 -2 -2 -2 -2 -1 -1 -1 -1 -1 -1 -1 -1 -0 -0 -0 -0 0 0 0 0
-5 -5 -4 -4 -4 -4 -4 -4 -4 -4 -4 -4 -3 -3 -3 -3 -3 -3 -3 -3 -3 -3 -3 -3 -2 -2 -2 -2 -2 -2 -2 -2 -2 -2 -2 -1 -1 -1 -1 -1 -1 -1 -0
-5 -5 -5 -5 -5 -5 -5 -5 -5 -5 -5 -4 -4 -4 -4 -4 -4 -4 -4 -4 -3 -3 -3 -3 -3 -3 -3 -3 -3 -3 -3 -3 -3 -2 -2 -2 -2 -2 -2 -2 -2 -2 -1
-6 -6 -6 -6 -6 -6 -6 -6 -6 -6 -5 -5 -5 -5 -5 -5 -5 -5 -5 -5 -4 -4 -4 -4 -4 -4 -3 -4 -3 -3 -3 -3 -3 -3 -3 -3 -3 -2 -2 -3 -3 -3 -3
-7 -7 -7 -7 -7 -7 -7 -7 -7 -6 -6 -6 -6 -6 -6 -6 -5 -5 -5 -5 -5 -5 -5 -5 -5 -4 -4 -4 -4 -4 -4 -4 -4 -4 -4 -3 -3 -3 -3 -4 -4 -4 -3
-7 -7 -7 -7 -7 -7 -7 -7 -7 -7 -7 -7 -7 -7 -6 -6 -6 -6 -6 -6 -6 -6 -6 -6 -5 -5 -5 -5 -5 -4 -4 -4 -4 -4 -4 -4 -4 -4 -4 -4 -4 -4 -4
-8 -8 -8 -8 -8 -8 -8 -8 -8 -8 -8 -8 -7 -7 -7 -7 -7 -7 -7 -7 -7 -7 -6 -6 -6 -6 -6 -6 -6 -5 -5 -5 -5 -5 -5 -5 -5 -5 -5 -5 -5 -5 -5
-8 -8 -8 -8 -8 -8 -8 -8 -8 -8 -8 -8 -8 -8 -8 -8 -8 -8 -8 -8 -8 -8 -7 -7 -7 -7 -7 -6 -6 -6 -6 -5 -5 -5 -5 -5 -5 -5 -5 -5 -5 -5 -5
-9 -9 -9 -9 -9 -9 -9 -9 -9 -9 -9 -9 -9 -9 -9 -9 -9 -9 -9 -9 -9 -8 -8 -8 -8 -7 -7 -7 -7 -7 -6 -6 -6 -6 -6 -6 -6 -6 -6 -6 -6 -6 -6
-10 -10 -10 -10 -10 -10 -10 -10 -10 -10 -10 -10 -9 -9 -9 -9 -9 -9 -9 -9 -9 -9 -9 -9 -8 -8 -8 -8 -8 -7 -7 -7 -7 -7 -7 -6 -6 -6 -6 -6 -6 -6 -6
-10 -10 -10 -10 -10 -10 -10 -10 -10 -10 -10 -10 -10 -10 -10 -10 -10 -10 -10 -10 -10 -10 -10 -9 -9 -9 -9 -9 -8 -8 -8 -8 -8 -8 -7 -7 -7 -7 -7 -7 -7 -7 -7
-11 -11 -11 -11 -11 -11 -11 -11 -11 -11 -11 -11 -11 -11 -11 -11 -11 -11 -10 -10 -10 -10 -10 -10 -10 -10 -9 -9 -9 -9 -9 -9 -8 -8 -8 -8 -8 -8 -8 -7 -7 -7 -7
-11 -11 -12 -12 -12 -12 -12 -12 -12 -12 -12 -12 -12 -12 -12 -11 -11 -11 -11 -11 -11 -11 -11 -11 -10 -10 -10 -10 -10 -9 -9 -9 -9 -9 -9 -9 -9 -9 -9 -8 -8 -8 -8
-12 -12 -12 -12 -12 -12 -12 -12 -12 -12 -12 -12 -13 -12 -12 -12 -12 -12 -12 -12 -12 -11 -11 -11 -11 -11 -11 -10 -10 -10 -10 -10 -10 -10 -10 -10 -10 -9 -9 -9 -9 -9 -9
-12 -13 -13 -13 -13 -13 -13 -13 -13 -13 -13 -13 -13 -13 -13 -12 -12 -12 -12 -12 -12 -12 -12 -12 -11 -11 -11 -11 -11 -11 -11 -10 -10 -10 -10 -10 -10 -10 -10 -10 -10 -10 -10
-13 -13 -13 -13 -13 -13 -13 -14 -13 -13 -13 -13 -13 -13 -13 -13 -13 -13 -12 -12 -12 -12 -12 -12 -12 -12 -12 -12 -12 -11 -11 -11 -11 -11 -11 -11 -11 -11 -11 -11 -11 -11 -11
-13 -14 -14 -14 -14 -14 -14 -14 -14 -14 -14 -14 -14 -13 -13 -13 -13 -13 -13 -13 -13 -13 -12 -12 -13 -13 -12 -12 -12 -12 -12 -12 -11 -11 -11 -11 -11 -11 -11 -11 -11 -11 -11
-14 -14 -14 -14 -14 -14 -14 -14 -14 -14 -14 -14 -14 -14 -14 -14 -14 -13 -13 -13 -13 -13 -13 -13 -13 -13 -13 -13 -13 -13 -12 -12 -12 -12 -12 -12 -12 -12 -12 -12 -12 -12 -12
-14 -14 -14 -14 -14 -15 -15 -15 -15 -15 -15 -15 -15 -15 -15 -15 -14 -14 -14 -14 -14 -13 -13 -13 -13 -13 -13 -13 -13 -13 -13 -12 -12 -12 -12 -12 -12 -12 -12 -12 -12 -12 -12
-15 -15 -15 -15 -15 -15 -15 -15 -15 -15 -15 -15 -15 -15 -15 -15 -15 -14 -14 -14 -14 -14 -14 -14 -14 -14 -13 -13 -13 -13 -13 -13 -13 -12 -12 -12 -12 -12 -12 -12 -12 -12 -12
-15 -15 -15 -15 -15 -15 -15 -15 -15 -15 -15 -15 -15 -15 -15 -15 -15 -15 -15 -14 -14 -14 -14 -14 -14 -14 -14 -14 -13 -13 -13 -13 -13 -13 -13 -13 -12 -12 -12 -12 -12 -12 -12
-15 -15 -15 -15 -15 -15 -15 -15 -15 -15 -16 -16 -15 -15 -15 -15 -15 -15 -15 -15 -15 -14 -14 -14 -14 -14 -14 -14 -14 -13 -13 -13 -13 -13 -13 -13 -13 -13 -13 -13 -13 -13 -13
-16 -16 -16 -16 -16 -16 -16 -16 -16 -16 -16 -16 -16 -16 -16 -16 -15 -15 -15 -15 -15 -15 -15 -14 -14 -14 -14 -14 -14 -14 -13 -13 -13 -13 -13 -13 -13 -13 -13 -13 -13 -13 -13
-16 -16 -16 -16 -16 -16 -16 -16 -16 -16 -16 -16 -16 -16 -16 -16 -16 -15 -15 -15 -15 -15 -15 -15 -14 -14 -14 -14 -14 -14 -14 -13 -13 -13 -13 -14 -14 -13 -13 -13 -13 -13 -13
Wind_Speed
2 2 2 3 3 2 3 3 3 3 3 3 3 3 3 3 4 4 5 4 5 5 5 6 6 5 4 4 4 4 5 5 7 5 3 3 4 5 7 9 10 9 10
3 2 3 3 3 3 3 4 3 3 3 4 4 4 4 4 4 5 6 6 6 7 7 6 8 6 6 5 5 7 6 6 6 7 5 3 5 5 5 6 7 8 9
3 3 3 3 3 3 4 4 4 4 4 4 4 4 5 5 5 5 6 7 7 7 8 8 8 7 7 6 6 7 6 6 6 6 6 3 3 4 4 4 5 6 8
3 2 3 3 4 4 4 4 4 4 4 4 4 5 5 5 6 6 6 6 7 8 8 8 8 9 9 8 7 8 7 7 6 6 6 4 4 3 4 4 4 4 5
3 3 4 4 4 4 4 4 4 4 4 4 5 5 5 5 6 6 6 7 7 7 7 8 9 10 12 10 8 7 7 7 6 6 6 4 4 4 5 4 5 4 4
3 4 4 4 4 4 4 4 4 4 4 4 5 5 6 6 8 10 8 7 7 7 7 7 8 10 12 14 15 13 11 9 8 7 6 7 7 6 5 5 4 4 5
4 4 4 4 4 5 5 5 5 5 5 5 5 6 7 8 10 11 10 7 7 7 7 7 7 8 10 8 11 13 13 14 14 10 9 9 8 7 7 6 6 6 7
4 5 5 5 5 5 5 5 5 5 5 5 6 6 7 8 10 11 10 7 7 7 7 7 8 7 8 8 8 8 9 9 11 10 9 9 9 9 9 9 8 6 4
5 5 5 5 5 5 5 6 5 5 5 6 6 6 6 8 10 10 9 5 6 7 7 7 8 8 11 11 9 9 9 8 11 13 14 13 13 13 11 6 5 5 6
6 6 5 5 5 5 6 6 5 5 5 6 6 6 6 6 9 9 9 5 6 6 6 7 10 10 11 12 9 8 9 8 7 8 9 10 9 10 12 9 7 7 5
5 5 5 5 5 5 5 5 5 5 4 5 6 5 5 6 8 9 9 5 5 5 5 5 6 10 12 13 12 8 10 9 6 6 6 5 5 5 7 8 8 7 7
5 5 5 5 5 4 4 4 4 4 4 5 5 5 4 5 7 8 9 9 8 6 6 5 6 10 12 12 10 11 12 9 5 5 5 5 6 6 5 7 8 9 9
4 5 5 5 5 4 4 4 4 3 3 4 4 4 5 4 5 8 9 10 10 6 6 9 10 11 11 9 11 11 8 5 5 5 6 6 5 5 5 5 5 6 6
4 5 5 4 4 4 3 4 3 3 3 4 4 5 5 5 4 4 4 5 7 7 6 8 10 10 9 8 8 7 5 5 5 6 5 5 3 4 4 4 4 4 3
4 4 4 4 4 4 4 4 4 4 5 5 5 5 5 5 6 8 6 5 4 5 5 4 4 4 4 4 4 4 4 4 5 4 4 4 4 4 4 4 4 4 4
4 4 3 3 3 3 3 4 7 7 9 9 9 8 7 10 11 11 11 11 11 9 5 4 4 5 5 5 5 5 4 4 5 5 5 5 5 5 5 4 4 5 6
4 4 3 3 3 3 3 4 5 6 8 8 9 10 10 11 11 11 11 10 10 8 4 4 4 5 5 5 5 5 5 5 4 5 5 5 5 5 5 5 6 6 6
4 5 4 3 3 3 3 4 4 4 5 5 7 10 11 11 10 10 9 7 5 4 3 4 5 5 5 5 5 5 5 4 4 5 5 5 5 6 6 6 6 7 6
4 3 3 3 3 3 3 3 4 4 4 5 5 7 9 9 9 8 7 3 3 4 4 4 5 5 5 5 5 5 5 5 5 5 5 6 6 6 6 7 6 8 7
4 6 5 3 3 3 3 3 3 4 4 5 5 5 5 5 4 4 4 3 4 4 5 5 5 5 5 5 5 5 5 5 5 5 5 5 6 6 7 8 7 7 7
3 4 6 4 3 3 3 3 4 4 4 5 5 6 8 5 4 4 4 4 4 5 5 5 5 5 5 5 5 5 6 6 5 5 5 6 6 6 6 7 7 7 6
3 3 3 3 3 3 4 3 4 4 5 5 5 7 10 5 4 4 4 5 4 5 5 5 5 5 5 5 5 6 6 6 6 6 6 6 6 6 6 6 6 6 6
3 4 4 3 4 6 5 4 4 4 5 5 5 6 5 4 5 5 5 5 5 5 5 5 6 6 6 7 7 7 7 7 7 6 6 6 6 6 6 6 7 6 7
3 3 4 3 3 3 4 5 4 5 5 5 5 5 5 5 5 6 5 5 5 6 6 6 6 8 9 9 8 9 10 10 10 9 9 8 7 6 6 6 6 7 7
3 3 3 3 4 4 4 5 5 5 5 5 6 6 6 6 6 6 5 5 6 6 7 7 7 8 10 11 11 10 12 13 13 11 10 8 8 8 7 7 6 6 7
3 3 4 3 4 4 4 5 5 5 6 6 6 6 6 6 6 6 5 5 5 6 7 7 9 10 11 11 11 12 13 13 14 14 11 7 7 7 7 7 7 7 7
Wind_Direction
330 325 324 312 311 300 286 283 287 292 287 281 262 253 250 245 236 231 238 237 233 237 237 233 240 236 234 229 218 216 221 217 242 260 253 245 232 237 252 252 252 253 256
320 322 318 319 323 308 293 290 288 287 284 276 270 258 253 250 241 236 240 242 238 239 240 239 242 237 236 233 222 221 223 219 228 250 257 244 239 234 235 243 254 252 252
327 328 326 323 317 308 302 300 294 287 287 286 280 267 259 253 246 244 242 241 239 240 239 237 240 235 241 240 231 227 226 228 225 236 250 245 244 237 239 253 252 253 254
328 325 317 311 306 303 304 306 300 293 285 281 277 273 268 260 254 252 251 250 247 247 245 242 240 234 237 240 238 232 225 225 227 232 242 243 241 231 221 237 255 243 253
320 313 306 309 310 309 308 307 303 298 290 284 283 279 277 266 256 252 250 251 252 253 250 246 246 244 243 241 241 234 226 226 226 231 239 244 243 225 225 225 248 259 252
303 298 304 309 309 308 306 306 305 299 294 287 280 279 276 273 271 265 259 252 250 252 255 253 251 250 251 252 252 248 236 230 227 230 237 238 238 230 225 229 238 252 263
296 299 302 302 302 303 305 306 303 299 298 292 284 277 274 275 277 275 268 262 254 252 251 254 260 256 256 252 257 254 250 245 235 230 236 236 234 222 216 227 228 237 249
290 293 296 296 296 299 299 296 293 291 288 286 286 281 278 281 281 278 276 267 260 256 252 249 252 254 252 249 251 251 252 249 243 237 236 237 234 223 216 223 228 240 256
285 285 286 286 287 290 290 290 289 290 289 286 285 284 281 284 284 279 278 270 264 264 261 257 254 251 257 257 254 250 254 257 255 251 249 249 248 241 230 221 218 229 251
284 285 285 281 279 279 282 285 288 284 283 285 288 287 283 284 286 283 275 263 264 267 266 262 260 259 261 259 251 245 250 252 249 253 253 255 251 243 236 223 217 225 239
291 293 291 286 282 278 279 282 284 284 287 288 288 289 288 287 291 291 283 266 260 265 267 265 262 265 267 264 262 251 252 256 244 242 246 245 241 234 230 226 220 220 226
298 296 295 295 292 287 282 285 284 281 285 288 291 292 288 288 293 292 288 283 277 263 265 266 264 271 272 272 269 264 262 262 248 238 241 241 237 235 232 227 227 229 234
302 298 297 298 296 293 285 284 285 276 273 283 285 288 293 292 293 296 295 292 287 277 271 274 275 273 275 275 274 271 263 252 241 240 244 245 244 236 226 227 231 234 245
295 297 297 296 297 296 288 282 276 269 270 274 281 286 290 291 291 292 287 289 288 286 283 282 283 280 277 277 276 269 254 246 244 245 250 247 243 239 233 227 232 226 241
291 291 294 292 291 295 293 283 282 267 265 269 269 275 282 282 287 292 291 285 276 271 278 272 273 273 272 272 273 260 248 247 249 246 245 247 245 243 242 229 227 225 235
289 290 289 291 292 294 301 308 298 293 291 289 287 286 286 285 288 291 293 295 297 295 286 272 273 270 266 268 268 263 252 246 246 245 243 242 242 241 243 237 230 228 237
277 281 282 284 286 290 293 298 306 311 307 306 306 304 301 300 295 295 295 296 298 299 283 274 273 272 272 272 270 266 262 256 250 244 243 242 243 242 240 239 235 233 237
279 283 287 277 278 282 287 291 293 299 308 311 310 309 310 310 306 304 305 304 297 292 275 272 273 273 274 275 270 266 267 263 255 251 246 243 239 238 239 238 235 235 236
283 284 284 280 279 281 286 289 291 292 295 301 310 313 316 316 311 306 310 298 287 286 283 277 274 273 273 273 271 267 264 261 257 253 251 247 240 235 238 237 236 240 239
282 289 299 295 292 295 296 292 293 294 298 299 300 305 316 316 313 312 309 297 283 280 278 279 281 278 275 273 269 267 266 263 259 254 253 251 247 240 238 236 234 234 235
281 287 297 302 298 296 296 292 290 291 292 294 295 296 302 300 297 296 296 292 285 282 279 277 275 276 273 271 268 264 261 260 257 254 254 253 250 247 244 239 236 235 236
277 280 284 289 293 293 293 290 290 288 289 291 298 304 305 306 298 292 287 284 283 281 279 277 275 273 273 269 264 262 261 260 259 255 254 254 252 249 247 243 239 236 234
276 281 288 290 291 295 304 302 297 294 293 293 296 299 300 295 288 285 285 285 286 283 279 275 274 276 276 272 266 258 254 255 255 251 252 254 252 248 246 244 239 237 237
277 278 282 288 293 291 292 295 295 293 293 295 297 297 295 289 287 286 285 287 285 283 279 275 272 273 275 276 273 268 262 260 258 252 245 245 248 248 244 242 242 239 237
272 276 279 281 285 287 291 293 295 297 298 298 298 297 297 295 291 290 290 289 287 286 284 278 276 275 276 275 275 273 274 271 265 258 249 244 244 242 240 238 237 238 238
279 280 281 281 281 283 286 290 293 296 297 297 297 297 298 298 297 295 293 291 290 288 286 283 279 277 279 279 278 280 281 279 274 267 259 246 238 238 236 237 234 234 236
Height
1483 1484 1484 1485 1485 1485 1486 1486 1487 1487 1488 1488 1488 1489 1490 1490 1491 1492 1493 1494 1494 1495 1496 1497 1498 1500 1500 1502 1502 1503 1505 1506 1504 1504 1506 1508 1509 1510 1511 1512 1513 1513 1514
1480 1480 1481 1481 1481 1481 1482 1482 1482 1482 1483 1483 1483 1484 1485 1485 1486 1486 1487 1488 1488 1489 1490 1491 1492 1493 1494 1495 1496 1497 1498 1499 1499 1498 1499 1501 1502 1503 1504 1505 1506 1507 1507
1477 1477 1477 1477 1477 1477 1477 1477 1477 1477 1477 1478 1478 1478 1479 1479 1480 1480 1481 1481 1482 1483 1484 1484 1485 1487 1487 1488 1489 1490 1491 1492 1492 1492 1492 1494 1495 1497 1498 1499 1499 1500 1501
1474 1474 1474 1473 1473 1473 1473 1473 1473 1472 1472 1472 1473 1473 1473 1473 1473 1474 1474 1475 1475 1476 1477 1478 1478 1479 1480 1481 1482 1483 1484 1485 1486 1486 1486 1486 1488 1489 1491 1491 1492 1493 1494
1471 1470 1470 1470 1470 1469 1469 1468 1468 1468 1467 1467 1467 1467 1467 1467 1467 1468 1468 1469 1469 1469 1470 1471 1471 1472 1473 1474 1475 1476 1477 1478 1479 1479 1479 1480 1481 1482 1483 1485 1485 1486 1487
1467 1467 1466 1466 1465 1465 1464 1463 1463 1462 1462 1462 1461 1461 1461 1461 1462 1462 1463 1463 1463 1463 1463 1464 1464 1465 1466 1467 1468 1469 1470 1471 1471 1472 1472 1473 1474 1476 1477 1478 1479 1479 1479
1464 1463 1462 1462 1461 1460 1459 1459 1458 1457 1457 1456 1456 1456 1455 1455 1456 1456 1456 1457 1456 1456 1456 1457 1457 1458 1459 1460 1460 1461 1462 1463 1465 1466 1465 1465 1467 1469 1470 1471 1472 1472 1472
1460 1459 1458 1458 1457 1456 1455 1454 1453 1453 1452 1451 1451 1450 1449 1449 1449 1449 1450 1450 1449 1449 1449 1450 1450 1451 1452 1453 1453 1454 1454 1455 1457 1458 1458 1459 1461 1462 1464 1465 1465 1466 1466
1456 1455 1454 1453 1452 1451 1451 1450 1449 1448 1447 1446 1445 1444 1444 1443 1443 1443 1443 1443 1442 1442 1443 1443 1443 1444 1445 1446 1447 1447 1447 1448 1450 1451 1451 1452 1453 1455 1457 1458 1458 1458 1457
1452 1451 1450 1449 1448 1447 1446 1445 1444 1443 1442 1441 1440 1439 1438 1438 1437 1437 1437 1437 1436 1436 1436 1436 1437 1437 1438 1439 1440 1440 1440 1440 1442 1443 1444 1445 1446 1447 1449 1450 1451 1451 1451
1448 1447 1446 1445 1444 1442 1441 1440 1439 1438 1437 1436 1435 1434 1433 1432 1432 1431 1431 1431 1431 1430 1430 1430 1430 1431 1431 1432 1433 1433 1433 1435 1435 1436 1437 1437 1439 1440 1441 1442 1443 1444 1445
1443 1442 1441 1440 1439 1438 1436 1435 1434 1433 1432 1431 1430 1428 1428 1427 1427 1426 1426 1426 1426 1425 1424 1424 1424 1425 1425 1426 1426 1426 1427 1428 1428 1429 1429 1430 1431 1432 1434 1435 1436 1437 1438
1438 1437 1436 1435 1434 1433 1432 1430 1429 1429 1428 1426 1425 1424 1423 1422 1422 1421 1421 1421 1420 1420 1419 1419 1419 1419 1419 1419 1419 1420 1421 1421 1421 1422 1422 1423 1424 1426 1427 1428 1429 1430 1431
1434 1433 1432 1431 1429 1429 1427 1426 1425 1424 1423 1422 1421 1420 1419 1418 1417 1416 1416 1415 1415 1415 1414 1414 1414 1413 1413 1413 1413 1413 1414 1414 1415 1415 1416 1417 1418 1419 1420 1421 1422 1423 1424
1431 1429 1428 1427 1426 1424 1423 1422 1421 1420 1420 1419 1417 1417 1415 1414 1413 1413 1412 1411 1411 1410 1410 1409 1408 1407 1407 1407 1407 1407 1408 1408 1409 1409 1410 1411 1411 1412 1413 1414 1415 1416 1416
1427 1426 1425 1423 1422 1421 1419 1418 1417 1416 1415 1414 1413 1412 1411 1410 1409 1408 1408 1407 1407 1407 1406 1404 1403 1402 1402 1401 1401 1401 1402 1402 1403 1403 1404 1404 1405 1406 1406 1407 1408 1409 1409
1424 1422 1421 1420 1419 1417 1416 1414 1412 1411 1411 1409 1408 1407 1406 1405 1404 1404 1403 1402 1402 1401 1400 1399 1398 1397 1397 1396 1396 1396 1396 1396 1397 1397 1398 1398 1399 1399 1400 1401 1401 1402 1402
1421 1419 1418 1417 1416 1414 1413 1411 1409 1407 1405 1404 1403 1402 1401 1400 1399 1398 1398 1397 1396 1396 1395 1394 1393 1393 1392 1391 1391 1390 1390 1391 1391 1391 1392 1392 1393 1393 1393 1394 1395 1395 1395
1417 1416 1415 1414 1412 1411 1409 1408 1406 1404 1402 1400 1398 1397 1396 1395 1394 1394 1393 1392 1391 1390 1389 1389 1388 1387 1387 1386 1385 1385 1385 1385 1385 1385 1385 1386 1386 1387 1387 1387 1388 1389 1389
1414 1413 1412 1410 1409 1408 1406 1404 1403 1401 1399 1397 1395 1394 1392 1391 1389 1389 1388 1387 1386 1385 1384 1383 1383 1382 1381 1381 1380 1380 1379 1379 1379 1379 1379 1380 1380 1380 1380 1381 1381 1382 1382
1411 1409 1408 1407 1405 1404 1403 1401 1399 1397 1396 1394 1392 1391 1389 1387 1386 1384 1383 1382 1381 1380 1379 1378 1377 1377 1376 1375 1375 1374 1374 1373 1373 1373 1373 1374 1374 1374 1374 1374 1375 1375 1376
1407 1406 1405 1403 1402 1401 1399 1397 1396 1394 1392 1390 1388 1387 1385 1384 1382 1380 1379 1378 1377 1375 1375 1374 1373 1372 1371 1370 1369 1368 1368 1367 1367 1367 1367 1367 1368 1368 1368 1368 1368 1369 1370
1404 1403 1401 1400 1399 1397 1396 1394 1392 1390 1389 1387 1385 1383 1381 1379 1378 1376 1374 1373 1372 1371 1370 1369 1367 1366 1365 1364 1364 1363 1362 1362 1362 1362 1362 1361 1362 1362 1362 1362 1362 1363 1363
1401 1399 1398 1397 1395 1394 1392 1390 1389 1387 1385 1383 1381 1379 1377 1376 1373 1371 1370 1369 1367 1366 1365 1363 1362 1361 1360 1359 1358 1357 1356 1356 1355 1355 1355 1355 1355 1355 1356 1356 1356 1357 1358
1397 1396 1394 1393 1392 1390 1388 1387 1385 1383 1381 1380 1378 1375 1373 1371 1369 1367 1366 1364 1363 1361 1360 1358 1357 1355 1354 1353 1352 1351 1350 1350 1349 1349 1349 1349 1349 1349 1350 1350 1351 1351 1352
1394 1392 1391 1390 1388 1387 1385 1383 1381 1380 1378 1376 1374 1371 1369 1367 1365 1363 1362 1360 1358 1356 1355 1354 1352 1350 1349 1348 1346 1345 1344 1344 1343 1343 1343 1343 1343 1343 1344 1344 1344 1345 1346